Location: ???????
(55.4362°N, 38.1183°E)
Time: 06:38:16
(UTC+00:00)

Cosmos 968 Rocket - Visible Passes

Search period start: 26 October 2021 00:00
Search period end: 05 November 2021 00:00
Orbit: 740 x 771 km, 74.0° (Epoch: 25 October)

Date Brightness Start Highest point End Pass type
(mag) Time Alt. Az. Time Alt. Az. Time Alt. Az.
26 Oct 5.6 15:27:35 10° N 15:29:25 12° NNE 15:31:15 10° NE visible
26 Oct 5.0 17:08:43 10° NNW 17:11:45 24° NNE 17:11:45 24° NNE visible
26 Oct 5.9 18:50:19 10° NNW 18:51:44 19° NNW 18:51:44 19° NNW visible
27 Oct 5.7 14:47:12 10° N 14:47:54 10° N 14:48:37 10° NNE visible
27 Oct 5.1 16:28:06 10° NNW 16:31:41 20° NNE 16:31:41 20° NNE visible
27 Oct 5.3 18:09:31 10° NNW 18:11:41 25° NNW 18:11:41 25° NNW visible
28 Oct 5.2 15:47:30 10° N 15:50:36 16° NNE 15:51:38 15° NE visible
28 Oct 4.9 17:28:48 10° NNW 17:31:38 29° N 17:31:38 29° N visible
28 Oct 6.2 19:10:47 10° NW 19:11:38 14° NW 19:11:38 14° NW visible
29 Oct 5.5 15:06:57 10° N 15:09:11 13° NNE 15:11:25 10° NE visible
29 Oct 4.7 16:48:07 10° NNW 16:51:37 28° NNE 16:51:37 28° NNE visible
29 Oct 5.7 18:29:49 10° NNW 18:31:37 22° NW 18:31:37 22° NW visible
30 Oct 4.8 16:07:29 10° NNW 16:11:35 23° NE 16:11:36 23° NE visible
30 Oct 5.0 17:48:59 10° NNW 17:51:36 30° NNW 17:51:36 30° NNW visible
31 Oct 5.1 15:26:53 10° N 15:30:19 17° NNE 15:31:38 16° NE visible
31 Oct 4.4 17:08:13 10° NNW 17:11:38 37° N 17:11:38 37° N visible
31 Oct 6.1 18:50:23 10° NW 18:51:37 16° NW 18:51:37 16° NW visible
01 Nov 5.4 14:46:19 10° N 14:48:56 14° NNE 14:51:33 10° NE visible
01 Nov 4.3 16:27:32 10° NNW 16:31:41 35° NNE 16:31:41 35° NNE visible
01 Nov 5.4 18:09:21 10° NW 18:11:41 26° NW 18:11:41 26° NW visible
02 Nov 4.5 15:46:53 10° NNW 15:51:14 26° NE 15:51:46 26° NE visible
02 Nov 4.5 17:28:28 10° NNW 17:31:46 40° NNW 17:31:46 40° NNW visible
02 Nov 6.4 19:11:33 10° WNW 19:11:47 11° WNW 19:11:47 11° WNW visible
03 Nov 4.9 15:06:16 10° NNW 15:09:59 19° NE 15:11:53 16° ENE visible
03 Nov 3.8 16:47:40 10° NNW 16:51:54 54° N 16:51:54 54° N visible
03 Nov 5.9 18:30:02 10° NW 18:31:54 19° WNW 18:31:54 19° WNW visible
04 Nov 5.2 14:25:41 10° N 14:28:40 15° NNE 14:31:38 10° ENE visible
04 Nov 3.8 16:06:57 10° NNW 16:11:53 43° NE 16:12:04 43° ENE visible
04 Nov 5.1 17:48:54 10° NW 17:52:05 32° WNW 17:52:05 32° WNW visible
